2023/04/07 23:31:53+0000,-34.79,-47.68,-38.15,-39.92,-48.01,-53.02
2023/04/07 23:32:45+0000,-33.92,-47.91,-38.28,-39.28,-48.00,-52.90
2023/04/07 23:33:37+0000,-34.86,-46.64,-38.15,-39.17,-48.08,-52.26
2023/04/07 23:34:29+0000,-34.61,-47.86,-38.01,-40.14,-49.94,-52.06
2023/04/07 23:35:21+0000,-34.73,-48.18,-37.97,-38.97,-49.14,-51.79
2023/04/07 23:36:13+0000,-34.35,-47.91,-38.65,-39.01,-49.51,-52.69
2023/04/07 23:37:05+0000,-35.19,-47.78,-37.84,-39.24,-49.78,-52.66
2023/04/07 23:37:57+0000,-34.56,-47.83,-38.46,-39.90,-50.14,-52.00
2023/04/07 23:38:49+0000,-33.98,-47.74,-38.41,-40.23,-48.18,-52.60
2023/04/07 23:39:41+0000,-34.48,-47.69,-38.06,-38.70,-50.60,-52.15
2023/04/07 23:40:33+0000,-34.50,-47.21,-38.31,-39.26,-48.47,-53.14
2023/04/07 23:41:33+0000,-34.52,-47.35,-38.10,-38.52,-49.44,-53.03
2023/04/07 23:42:25+0000,-35.15,-47.79,-38.40,-38.64,-48.10,-53.44
2023/04/07 23:43:17+0000,-34.35,-47.59,-38.34,-39.22,-47.52,-53.08
2023/04/07 23:44:09+0000,-34.72,-47.54,-38.15,-38.06,-48.12,-50.38
2023/04/07 23:45:01+0000,-34.56,-46.58,-38.52,-39.28,-47.38,-52.38
2023/04/07 23:45:53+0000,-34.66,-46.04,-38.16,-39.06,-48.54,-52.80
2023/04/07 23:46:45+0000,-34.61,-46.23,-38.06,-38.53,-49.18,-51.10
2023/04/07 23:47:37+0000,-34.27,-47.28,-38.45,-39.34,-48.45,-49.33
2023/04/07 23:48:29+0000,-34.74,-46.91,-37.99,-38.89,-49.19,-52.62
2023/04/07 23:49:21+0000,-34.51,-45.75,-37.90,-39.98,-47.70,-52.75
2023/04/07 23:50:13+0000,-35.59,-45.44,-38.26,-40.03,-48.76,-51.73
2023/04/07 23:51:13+0000,-34.63,-47.50,-38.15,-40.95,-48.99,-52.97
2023/04/07 23:52:05+0000,-35.35,-46.18,-38.61,-41.30,-49.39,-52.55
2023/04/07 23:52:57+0000,-35.12,-46.70,-38.16,-39.12,-49.45,-52.34
2023/04/07 23:53:49+0000,-34.48,-46.98,-38.24,-39.58,-47.14,-52.90
2023/04/07 23:54:41+0000,-34.08,-46.96,-38.02,-40.13,-49.22,-52.31
2023/04/07 23:55:33+0000,-34.42,-45.67,-38.21,-40.42,-47.59,-52.66
2023/04/07 23:56:25+0000,-34.47,-48.32,-37.86,-38.90,-47.48,-51.56
2023/04/07 23:57:17+0000,-34.84,-47.25,-37.66,-40.38,-47.86,-53.54
2023/04/07 23:58:09+0000,-34.66,-47.53,-38.43,-40.17,-45.14,-52.32
2023/04/07 23:59:01+0000,-35.11,-46.51,-37.74,-39.49,-46.08,-52.25
2023/04/07 23:59:53+0000,-34.82,-46.74,-38.15,-39.66,-48.09,-52.26
2023/04/08 00:00:48+0000,-35.52,-47.52,-37.70,-39.62,-46.38,-53.11
2023/04/08 00:01:48+0000,-34.33,-47.61,-38.14,-39.83,-44.97,-52.76
2023/04/08 00:02:40+0000,-35.04,-47.80,-38.03,-39.54,-48.64,-52.95
2023/04/08 00:03:32+0000,-34.19,-47.43,-38.08,-40.03,-46.91,-53.00
2023/04/08 00:04:24+0000,-35.53,-46.34,-38.43,-40.14,-48.98,-51.78
2023/04/08 00:05:16+0000,-35.16,-46.96,-37.51,-39.57,-45.89,-52.93
2023/04/08 00:06:08+0000,-34.61,-45.09,-38.46,-39.40,-46.49,-52.62
2023/04/08 00:07:00+0000,-35.26,-46.79,-37.87,-40.23,-46.09,-53.47
2023/04/08 00:07:52+0000,-34.26,-47.61,-38.10,-39.96,-47.01,-53.18
2023/04/08 00:08:44+0000,-34.34,-47.39,-38.20,-38.65,-47.16,-52.68
2023/04/08 00:09:36+0000,-34.36,-47.04,-37.80,-39.22,-47.06,-52.58
2023/04/08 00:10:28+0000,-34.48,-47.16,-38.03,-39.10,-45.92,-52.77
2023/04/08 00:11:28+0000,-33.86,-47.62,-38.34,-38.43,-44.10,-52.77
2023/04/08 00:12:20+0000,-33.90,-47.56,-38.15,-39.00,-47.75,-53.55
2023/04/08 00:13:12+0000,-34.53,-46.85,-37.61,-39.42,-47.96,-52.32
2023/04/08 00:14:04+0000,-35.30,-47.25,-38.32,-39.91,-46.39,-52.51
2023/04/08 00:14:56+0000,-34.42,-46.20,-38.46,-38.81,-48.99,-52.90
2023/04/08 00:15:48+0000,-33.47,-46.62,-37.57,-40.28,-48.46,-52.19
2023/04/08 00:16:40+0000,-33.63,-47.37,-38.43,-39.43,-49.36,-52.86
2023/04/08 00:17:32+0000,-33.78,-47.65,-38.28,-39.87,-47.27,-52.80
2023/04/08 00:18:24+0000,-34.81,-48.17,-37.93,-42.22,-49.53,-52.11
2023/04/08 00:19:16+0000,-34.74,-47.76,-38.13,-41.74,-47.49,-53.20
2023/04/08 00:20:08+0000,-34.55,-47.61,-38.19,-38.93,-46.95,-52.24
2023/04/08 00:21:07+0000,-34.67,-47.63,-37.53,-40.28,-48.79,-51.92
2023/04/08 00:21:59+0000,-33.83,-47.17,-38.15,-38.85,-48.02,-51.77
2023/04/08 00:22:51+0000,-33.01,-47.54,-37.88,-38.79,-47.15,-52.86
2023/04/08 00:23:43+0000,-34.26,-48.08,-38.45,-39.17,-47.22,-51.99
2023/04/08 00:24:35+0000,-35.37,-47.45,-38.48,-39.08,-48.55,-51.86
2023/04/08 00:25:27+0000,-34.37,-47.55,-37.76,-39.14,-49.19,-53.04
2023/04/08 00:26:19+0000,-34.38,-48.51,-38.45,-40.31,-47.83,-50.69
2023/04/08 00:27:11+0000,-34.11,-49.33,-37.93,-39.62,-48.95,-52.55
2023/04/08 00:28:03+0000,-34.89,-48.65,-38.36,-39.82,-49.79,-53.04
2023/04/08 00:28:55+0000,-34.65,-48.56,-38.54,-38.96,-49.63,-49.45
2023/04/08 00:29:48+0000,-34.25,-48.42,-37.72,-40.14,-48.26,-52.73
2023/04/08 00:30:40+0000,-35.61,-48.28,-38.22,-39.34,-49.67,-51.29
2023/04/08 00:31:40+0000,-35.03,-48.22,-38.45,-39.19,-49.36,-52.48
2023/04/08 00:32:32+0000,-34.34,-48.88,-38.18,-39.47,-47.82,-52.72
2023/04/08 00:33:24+0000,-34.63,-49.24,-38.06,-39.59,-48.53,-51.64
2023/04/08 00:34:16+0000,-34.29,-48.74,-37.44,-38.72,-47.46,-53.24
2023/04/08 00:35:08+0000,-33.95,-49.15,-38.46,-38.50,-48.43,-53.01
2023/04/08 00:36:00+0000,-34.74,-48.61,-37.85,-38.76,-47.66,-52.18
2023/04/08 00:36:52+0000,-34.79,-49.56,-38.54,-39.57,-48.42,-52.78
2023/04/08 00:37:44+0000,-34.85,-48.82,-38.84,-40.02,-49.22,-52.64
2023/04/08 00:38:36+0000,-34.40,-48.64,-38.53,-39.46,-49.46,-51.40
2023/04/08 00:39:28+0000,-35.14,-48.65,-38.31,-38.35,-49.70,-52.26
2023/04/08 00:40:20+0000,-35.39,-49.18,-37.48,-40.89,-48.38,-52.90
2023/04/08 00:41:20+0000,-34.81,-49.39,-38.13,-39.68,-48.04,-52.44
2023/04/08 00:42:12+0000,-34.96,-48.78,-38.02,-39.60,-49.90,-52.33
2023/04/08 00:43:04+0000,-34.53,-48.44,-37.82,-40.30,-49.25,-52.41
2023/04/08 00:43:56+0000,-34.98,-48.57,-38.51,-39.70,-49.32,-52.84
2023/04/08 00:44:48+0000,-34.09,-48.47,-37.94,-39.32,-48.62,-53.10
2023/04/08 00:45:40+0000,-34.46,-48.91,-37.88,-40.21,-48.95,-52.72
2023/04/08 00:46:32+0000,-34.16,-48.31,-37.77,-38.37,-49.76,-53.32
2023/04/08 00:47:24+0000,-34.70,-48.20,-38.01,-39.38,-49.60,-52.40
2023/04/08 00:48:16+0000,-34.52,-48.49,-38.11,-39.67,-49.75,-52.71
2023/04/08 00:49:08+0000,-34.20,-47.95,-37.61,-39.83,-49.57,-51.93
2023/04/08 00:50:01+0000,-34.26,-48.51,-38.00,-38.66,-50.52,-52.03
2023/04/08 00:51:00+0000,-34.31,-48.41,-38.49,-38.47,-49.75,-52.16
2023/04/08 00:51:52+0000,-33.94,-48.84,-38.76,-39.19,-49.79,-52.98
2023/04/08 00:52:44+0000,-34.72,-48.37,-38.57,-38.49,-49.42,-52.96
2023/04/08 00:53:36+0000,-35.09,-48.63,-38.02,-39.14,-48.79,-53.04
2023/04/08 00:54:28+0000,-34.35,-48.85,-38.77,-38.03,-50.08,-52.93
2023/04/08 00:55:20+0000,-34.58,-47.44,-38.53,-38.41,-49.60,-52.88
2023/04/08 00:56:12+0000,-35.13,-48.45,-38.44,-38.40,-50.52,-52.73
2023/04/08 00:57:04+0000,-34.49,-49.14,-37.66,-38.95,-49.84,-52.66
2023/04/08 00:57:56+0000,-34.10,-49.08,-37.97,-37.71,-50.76,-53.43
2023/04/08 00:58:48+0000,-34.81,-47.80,-37.87,-38.09,-49.57,-52.84
2023/04/08 00:59:40+0000,-34.63,-47.03,-37.84,-38.59,-49.53,-51.47
2023/04/08 01:00:32+0000,-34.85,-48.56,-37.74,-38.58,-50.70,-53.11
2023/04/08 01:01:34+0000,-34.97,-48.63,-38.35,-39.31,-50.05,-51.38
2023/04/08 01:02:26+0000,-34.18,-48.08,-39.07,-39.15,-50.22,-51.46
2023/04/08 01:03:18+0000,-34.34,-48.50,-38.27,-40.69,-49.56,-52.72
2023/04/08 01:04:10+0000,-35.61,-47.30,-38.43,-38.80,-50.19,-53.42
2023/04/08 01:05:02+0000,-34.69,-49.11,-38.71,-38.89,-50.11,-53.28
2023/04/08 01:05:54+0000,-35.02,-48.47,-38.70,-37.77,-49.05,-51.25
2023/04/08 01:06:46+0000,-34.42,-46.25,-37.54,-39.19,-50.08,-52.93
2023/04/08 01:07:38+0000,-35.45,-46.47,-36.96,-39.24,-49.66,-52.75
2023/04/08 01:08:30+0000,-34.96,-47.22,-37.87,-38.08,-49.89,-52.42
2023/04/08 01:09:22+0000,-34.73,-46.41,-38.64,-38.11,-49.41,-52.67
2023/04/08 01:10:14+0000,-34.61,-46.39,-38.15,-39.54,-48.66,-52.85
2023/04/08 01:11:14+0000,-34.88,-47.09,-38.64,-38.87,-49.11,-52.30
2023/04/08 01:12:06+0000,-35.26,-47.53,-37.99,-38.71,-50.13,-52.04
2023/04/08 01:12:58+0000,-34.72,-47.70,-38.06,-37.80,-49.82,-52.61
2023/04/08 01:13:50+0000,-35.37,-47.43,-37.04,-38.82,-50.29,-52.42
2023/04/08 01:14:42+0000,-35.45,-46.12,-38.41,-38.42,-50.87,-51.88
2023/04/08 01:15:34+0000,-34.94,-46.32,-38.26,-39.52,-50.45,-52.49
2023/04/08 01:16:26+0000,-34.68,-46.03,-37.38,-38.87,-50.10,-51.77
2023/04/08 01:17:18+0000,-35.04,-45.09,-37.01,-38.90,-49.70,-52.33
2023/04/08 01:18:11+0000,-34.83,-45.65,-37.69,-38.23,-49.68,-52.96
2023/04/08 01:19:03+0000,-35.04,-46.35,-37.36,-38.95,-49.92,-52.88
2023/04/08 01:19:55+0000,-35.17,-47.13,-37.71,-39.11,-50.79,-52.46
2023/04/08 01:20:47+0000,-35.22,-45.92,-37.66,-39.46,-50.42,-52.52
2023/04/08 01:21:46+0000,-34.93,-46.38,-36.86,-38.93,-50.16,-52.88
2023/04/08 01:22:38+0000,-34.89,-46.54,-37.33,-38.97,-51.06,-52.31
2023/04/08 01:23:30+0000,-34.38,-45.64,-37.29,-37.82,-50.60,-52.80
2023/04/08 01:24:22+0000,-35.09,-46.29,-37.67,-37.34,-49.87,-52.19
2023/04/08 01:25:14+0000,-34.41,-46.81,-37.11,-37.63,-49.30,-52.84
2023/04/08 01:26:06+0000,-34.75,-47.02,-37.27,-37.12,-50.02,-52.89
2023/04/08 01:26:59+0000,-34.80,-46.25,-37.95,-38.43,-51.06,-52.80
2023/04/08 01:27:51+0000,-35.34,-46.04,-36.72,-39.21,-49.52,-52.03
2023/04/08 01:28:43+0000,-34.03,-45.41,-38.34,-37.51,-49.89,-52.57
2023/04/08 01:29:35+0000,-35.48,-46.05,-37.26,-39.66,-50.47,-53.00
2023/04/08 01:30:27+0000,-34.84,-45.66,-38.18,-39.86,-50.43,-52.98
2023/04/08 01:31:27+0000,-34.46,-45.78,-38.35,-38.82,-50.05,-52.79
2023/04/08 01:32:19+0000,-33.77,-46.07,-38.44,-39.72,-49.04,-53.06
2023/04/08 01:33:11+0000,-34.27,-46.48,-36.41,-36.34,-50.03,-52.68
2023/04/08 01:34:03+0000,-35.01,-45.79,-38.03,-40.23,-49.96,-53.25
2023/04/08 01:34:55+0000,-33.80,-45.68,-37.78,-38.07,-50.14,-51.82
2023/04/08 01:35:47+0000,-34.78,-46.16,-38.09,-35.29,-49.77,-52.86
2023/04/08 01:36:39+0000,-35.10,-46.02,-37.25,-36.10,-50.74,-52.82
2023/04/08 01:37:31+0000,-35.08,-45.71,-36.70,-36.49,-50.85,-53.11
2023/04/08 01:38:23+0000,-33.72,-45.49,-38.11,-38.92,-47.73,-52.82
2023/04/08 01:39:15+0000,-35.35,-44.71,-37.43,-36.41,-47.10,-53.06
2023/04/08 01:40:07+0000,-34.72,-46.68,-37.61,-35.91,-49.41,-52.82
2023/04/08 01:41:11+0000,-35.66,-45.96,-37.77,-37.22,-50.94,-52.69
2023/04/08 01:42:03+0000,-34.92,-47.74,-37.75,-40.04,-49.04,-52.93
2023/04/08 01:42:56+0000,-35.36,-47.83,-36.44,-38.58,-50.40,-52.17
2023/04/08 01:43:48+0000,-34.05,-46.47,-36.77,-37.05,-46.73,-53.19
2023/04/08 01:44:40+0000,-34.70,-44.65,-37.39,-36.66,-49.61,-52.55
2023/04/08 01:45:32+0000,-34.10,-45.20,-37.62,-38.42,-48.97,-53.40
2023/04/08 01:46:24+0000,-34.58,-44.70,-36.30,-39.18,-48.04,-52.66
2023/04/08 01:47:16+0000,-34.87,-45.91,-37.45,-36.87,-46.90,-53.03
2023/04/08 01:48:08+0000,-34.25,-45.85,-37.43,-39.01,-49.84,-52.62
2023/04/08 01:49:00+0000,-34.15,-45.58,-36.99,-39.20,-49.75,-52.77
2023/04/08 01:49:52+0000,-34.10,-45.11,-37.49,-39.31,-47.80,-52.86
2023/04/08 01:50:44+0000,-34.56,-44.81,-37.34,-39.21,-47.79,-53.12
2023/04/08 01:51:42+0000,-34.93,-45.35,-38.14,-39.11,-48.33,-53.46
2023/04/08 01:52:34+0000,-35.04,-44.97,-36.45,-39.28,-48.72,-53.53
2023/04/08 01:53:26+0000,-35.36,-44.64,-37.07,-36.02,-49.97,-53.34
2023/04/08 01:54:18+0000,-34.46,-45.12,-37.17,-39.20,-48.23,-52.71
2023/04/08 01:55:10+0000,-34.08,-43.75,-37.75,-38.62,-50.49,-52.82
2023/04/08 01:56:02+0000,-34.51,-45.51,-36.41,-37.97,-49.95,-52.99
2023/04/08 01:56:54+0000,-34.50,-44.33,-37.21,-38.45,-48.87,-52.66
2023/04/08 01:57:46+0000,-34.26,-45.35,-37.68,-37.18,-47.64,-53.28
2023/04/08 01:58:38+0000,-34.31,-46.11,-37.85,-35.44,-51.04,-53.16
2023/04/08 01:59:30+0000,-34.22,-45.84,-37.78,-37.85,-49.34,-52.78
2023/04/08 02:00:23+0000,-33.74,-45.39,-37.84,-38.92,-48.63,-52.58
2023/04/08 02:01:23+0000,-34.53,-43.74,-37.77,-37.42,-49.65,-52.64
2023/04/08 02:02:15+0000,-34.22,-44.52,-37.50,-37.58,-47.86,-52.98
2023/04/08 02:03:07+0000,-33.88,-46.99,-37.06,-37.52,-50.34,-52.91
2023/04/08 02:03:59+0000,-33.99,-47.79,-37.31,-38.82,-50.34,-52.24
2023/04/08 02:04:51+0000,-33.46,-46.71,-37.51,-39.64,-47.20,-52.84
2023/04/08 02:05:43+0000,-34.33,-45.96,-38.18,-36.90,-48.46,-53.62
2023/04/08 02:06:35+0000,-34.24,-46.59,-37.48,-36.34,-48.72,-52.84
2023/04/08 02:07:27+0000,-34.10,-46.72,-38.44,-38.68,-49.14,-52.93
2023/04/08 02:08:20+0000,-34.03,-46.93,-37.43,-39.64,-46.83,-52.75
2023/04/08 02:09:12+0000,-34.27,-45.72,-38.21,-37.58,-46.16,-52.95
2023/04/08 02:10:04+0000,-34.53,-45.04,-37.48,-39.61,-48.50,-52.50
2023/04/08 02:11:03+0000,-34.33,-43.05,-37.92,-39.69,-49.05,-53.16
2023/04/08 02:11:55+0000,-33.60,-46.03,-37.73,-39.01,-49.20,-52.57
2023/04/08 02:12:47+0000,-34.64,-44.02,-38.35,-33.19,-47.53,-53.16
2023/04/08 02:13:39+0000,-34.72,-44.98,-37.29,-34.88,-49.64,-52.93
2023/04/08 02:14:31+0000,-34.20,-44.39,-37.50,-39.29,-49.97,-53.43
2023/04/08 02:15:23+0000,-35.10,-46.21,-37.32,-37.44,-48.77,-52.86
2023/04/08 02:16:15+0000,-33.48,-46.93,-37.48,-39.04,-48.06,-52.74
2023/04/08 02:17:07+0000,-34.80,-47.69,-37.90,-39.50,-48.88,-53.05
2023/04/08 02:17:59+0000,-34.22,-47.06,-37.88,-37.75,-49.97,-53.03
2023/04/08 02:18:51+0000,-34.39,-47.79,-37.91,-37.65,-48.70,-53.17
2023/04/08 02:19:43+0000,-34.51,-45.36,-37.85,-40.25,-47.91,-53.53
2023/04/08 02:20:35+0000,-34.27,-47.98,-36.89,-38.91,-47.84,-52.55
2023/04/08 02:21:40+0000,-34.52,-46.92,-37.76,-39.36,-49.37,-52.58
2023/04/08 02:22:32+0000,-33.94,-46.26,-38.25,-37.84,-46.99,-53.40
2023/04/08 02:23:24+0000,-34.91,-45.14,-37.41,-38.66,-48.05,-52.67
2023/04/08 02:24:16+0000,-33.81,-45.31,-37.75,-38.88,-47.71,-53.08
2023/04/08 02:25:08+0000,-34.70,-45.61,-38.12,-39.01,-48.83,-53.17
2023/04/08 02:26:00+0000,-34.21,-46.59,-37.64,-38.52,-48.91,-52.51
2023/04/08 02:26:52+0000,-34.34,-47.09,-37.99,-38.31,-46.29,-53.03
2023/04/08 02:27:44+0000,-33.62,-43.39,-38.57,-39.22,-47.66,-53.35
2023/04/08 02:28:36+0000,-34.69,-47.70,-38.16,-38.76,-47.92,-52.44
2023/04/08 02:29:28+0000,-34.39,-43.34,-38.80,-39.76,-48.47,-52.67
2023/04/08 02:30:20+0000,-34.46,-44.82,-36.81,-39.69,-48.32,-52.18
2023/04/08 02:31:19+0000,-34.36,-44.48,-38.19,-40.22,-44.19,-52.96
2023/04/08 02:32:11+0000,-35.30,-45.37,-38.01,-39.08,-48.92,-53.16
2023/04/08 02:33:03+0000,-35.50,-43.52,-37.78,-37.58,-49.19,-52.82
2023/04/08 02:33:55+0000,-34.81,-44.84,-37.38,-38.47,-49.82,-52.37
2023/04/08 02:34:47+0000,-34.46,-44.81,-37.31,-38.43,-47.32,-52.78
2023/04/08 02:35:39+0000,-34.09,-44.97,-37.34,-38.58,-48.98,-52.70
2023/04/08 02:36:31+0000,-34.64,-44.03,-38.10,-37.49,-49.07,-52.36
2023/04/08 02:37:23+0000,-34.50,-45.56,-37.23,-38.70,-46.84,-53.42
2023/04/08 02:38:15+0000,-34.54,-44.59,-37.76,-40.33,-44.95,-52.63
2023/04/08 02:39:07+0000,-34.34,-45.54,-37.55,-39.50,-49.30,-53.35
2023/04/08 02:39:59+0000,-34.75,-41.86,-38.12,-39.89,-48.62,-52.98
2023/04/08 02:40:51+0000,-35.26,-45.79,-38.65,-39.35,-48.82,-53.86
2023/04/08 02:41:55+0000,-35.06,-44.39,-37.42,-39.30,-42.38,-52.90
2023/04/08 02:42:47+0000,-34.87,-43.48,-37.51,-39.80,-45.54,-53.16
2023/04/08 02:43:39+0000,-34.07,-44.38,-37.57,-39.57,-48.60,-52.68
2023/04/08 02:44:31+0000,-34.58,-40.70,-37.19,-38.97,-48.06,-52.72
2023/04/08 02:45:23+0000,-34.61,-45.05,-37.48,-38.43,-48.14,-52.97
2023/04/08 02:46:15+0000,-34.24,-44.67,-38.47,-39.38,-47.33,-53.45
2023/04/08 02:47:07+0000,-34.74,-45.23,-37.15,-39.92,-48.64,-52.58
2023/04/08 02:47:59+0000,-34.43,-44.62,-37.76,-39.80,-47.57,-52.87
2023/04/08 02:48:51+0000,-34.87,-45.43,-38.03,-40.55,-46.19,-52.86
2023/04/08 02:49:43+0000,-33.62,-43.03,-37.94,-39.41,-45.59,-52.35
2023/04/08 02:50:36+0000,-34.60,-44.44,-36.82,-40.96,-47.43,-52.86
2023/04/08 02:51:39+0000,-35.01,-44.12,-36.84,-39.32,-47.61,-53.12
2023/04/08 02:52:31+0000,-35.06,-45.11,-36.55,-39.37,-47.65,-52.46
2023/04/08 02:53:23+0000,-35.30,-46.69,-37.48,-38.76,-46.34,-53.14
2023/04/08 02:54:15+0000,-35.07,-45.64,-37.69,-39.53,-45.41,-52.42
2023/04/08 02:55:07+0000,-34.32,-45.05,-38.01,-39.55,-47.30,-52.16
2023/04/08 02:55:59+0000,-34.97,-45.84,-38.19,-38.25,-46.28,-53.04
2023/04/08 02:56:51+0000,-34.70,-43.85,-36.69,-40.30,-49.27,-52.62
2023/04/08 02:57:43+0000,-34.52,-43.59,-37.87,-39.71,-49.50,-53.31
2023/04/08 02:58:35+0000,-34.97,-46.08,-37.43,-40.71,-46.56,-52.78
2023/04/08 02:59:27+0000,-34.84,-45.80,-37.13,-38.37,-48.99,-53.02
2023/04/08 03:00:19+0000,-34.87,-43.56,-38.12,-39.60,-48.15,-53.05
2023/04/08 03:01:19+0000,-34.35,-41.84,-37.74,-38.66,-47.61,-52.61
2023/04/08 03:02:11+0000,-34.87,-45.34,-38.04,-39.95,-48.42,-52.65
2023/04/08 03:03:03+0000,-34.75,-41.32,-37.87,-40.62,-47.61,-52.74
2023/04/08 03:03:55+0000,-34.86,-44.62,-37.48,-38.67,-48.76,-52.86
2023/04/08 03:04:48+0000,-32.80,-46.54,-37.83,-41.01,-49.33,-53.18
2023/04/08 03:05:40+0000,-33.80,-46.75,-37.66,-40.73,-49.28,-52.55
2023/04/08 03:06:32+0000,-34.36,-46.15,-37.44,-38.53,-48.22,-52.85
2023/04/08 03:07:24+0000,-34.30,-44.96,-37.72,-39.85,-48.72,-52.80
2023/04/08 03:08:16+0000,-35.08,-47.09,-39.12,-39.14,-48.95,-52.52
2023/04/08 03:09:08+0000,-34.13,-47.79,-36.96,-39.88,-48.84,-52.71
2023/04/08 03:10:00+0000,-33.79,-45.14,-36.68,-37.24,-48.49,-52.78
2023/04/08 03:11:00+0000,-34.08,-45.49,-36.83,-38.57,-48.69,-52.88
2023/04/08 03:11:52+0000,-34.55,-47.51,-37.33,-38.52,-48.55,-52.22
2023/04/08 03:12:44+0000,-34.60,-42.19,-38.10,-39.12,-47.97,-52.53
2023/04/08 03:13:36+0000,-34.57,-46.95,-37.10,-38.51,-48.96,-53.46
2023/04/08 03:14:28+0000,-34.51,-45.87,-38.55,-39.09,-48.54,-52.66
2023/04/08 03:15:20+0000,-34.84,-42.17,-37.18,-40.38,-48.69,-52.86
2023/04/08 03:16:12+0000,-34.15,-43.51,-38.38,-39.46,-48.72,-52.63
2023/04/08 03:17:04+0000,-34.32,-45.08,-37.78,-39.74,-48.84,-52.94
2023/04/08 03:17:56+0000,-34.57,-46.67,-37.65,-39.41,-49.88,-52.51
2023/04/08 03:18:48+0000,-33.87,-42.83,-36.71,-39.79,-49.17,-52.73
2023/04/08 03:19:40+0000,-33.72,-44.28,-35.72,-38.02,-49.56,-52.01
2023/04/08 03:20:32+0000,-34.79,-47.38,-36.90,-37.78,-49.47,-52.49
2023/04/08 03:21:31+0000,-33.48,-48.25,-37.29,-38.49,-49.82,-52.90
2023/04/08 03:22:23+0000,-34.98,-47.81,-37.70,-38.36,-48.41,-52.23
2023/04/08 03:23:16+0000,-34.17,-43.38,-37.72,-38.01,-48.70,-52.63
2023/04/08 03:24:08+0000,-34.40,-48.72,-37.62,-37.65,-48.45,-52.90
2023/04/08 03:25:00+0000,-34.72,-48.22,-36.57,-39.02,-49.43,-52.57
2023/04/08 03:25:52+0000,-34.28,-49.04,-37.93,-38.58,-48.56,-52.40
2023/04/08 03:26:44+0000,-32.40,-45.74,-38.21,-37.54,-49.14,-52.58
2023/04/08 03:27:36+0000,-32.66,-49.84,-36.63,-38.07,-49.91,-52.74
2023/04/08 03:28:28+0000,-32.75,-46.74,-37.87,-39.28,-49.03,-52.21
2023/04/08 03:29:20+0000,-32.83,-45.79,-37.41,-39.00,-49.30,-51.49
2023/04/08 03:30:12+0000,-33.06,-45.59,-38.42,-37.29,-49.06,-51.85
2023/04/08 03:31:10+0000,-32.80,-40.88,-35.43,-36.88,-50.03,-52.34
2023/04/08 03:32:02+0000,-32.46,-47.09,-36.96,-37.15,-49.42,-52.54
2023/04/08 03:32:55+0000,-32.58,-47.92,-37.52,-38.26,-49.81,-52.16
2023/04/08 03:33:47+0000,-32.45,-44.13,-37.35,-36.47,-48.53,-51.54
2023/04/08 03:34:39+0000,-33.20,-43.23,-37.74,-35.75,-49.59,-52.34
2023/04/08 03:35:31+0000,-33.50,-45.98,-37.20,-37.33,-48.11,-51.05
2023/04/08 03:36:23+0000,-32.75,-47.84,-37.13,-38.23,-47.23,-50.73
2023/04/08 03:37:15+0000,-33.16,-44.88,-37.45,-36.24,-46.38,-51.15
2023/04/08 03:38:07+0000,-31.20,-48.56,-37.46,-38.03,-47.35,-51.09
2023/04/08 03:38:59+0000,-32.38,-44.22,-38.38,-37.46,-47.68,-50.88
2023/04/08 03:39:51+0000,-32.45,-47.78,-37.14,-37.16,-46.61,-51.14
2023/04/08 03:40:43+0000,-32.09,-44.31,-38.26,-37.42,-46.99,-50.96
2023/04/08 03:41:52+0000,-32.31,-47.96,-37.10,-37.28,-47.25,-51.14
2023/04/08 03:42:44+0000,-32.97,-45.83,-38.92,-36.89,-47.59,-52.07
2023/04/08 03:43:37+0000,-31.38,-47.02,-37.47,-37.46,-47.51,-51.10
2023/04/08 03:44:29+0000,-32.33,-45.42,-38.34,-37.25,-47.41,-51.09
2023/04/08 03:45:21+0000,-32.52,-43.48,-37.01,-38.23,-46.60,-51.37
2023/04/08 03:46:13+0000,-32.13,-44.48,-38.05,-37.02,-47.64,-51.25
2023/04/08 03:47:05+0000,-31.51,-45.34,-37.99,-38.10,-47.43,-50.97
2023/04/08 03:47:57+0000,-32.68,-45.81,-37.89,-36.72,-48.06,-50.74
2023/04/08 03:48:49+0000,-33.00,-44.37,-37.58,-38.26,-48.03,-51.08
2023/04/08 03:49:41+0000,-32.21,-45.97,-37.06,-38.02,-48.45,-50.62
2023/04/08 03:50:33+0000,-32.30,-46.58,-37.60,-36.85,-47.83,-51.22
2023/04/08 03:51:33+0000,-32.29,-46.88,-36.84,-36.68,-48.09,-50.48
2023/04/08 03:52:25+0000,-32.07,-46.47,-37.68,-36.55,-47.81,-50.52
2023/04/08 03:53:17+0000,-32.11,-46.21,-37.48,-37.32,-48.18,-50.84
2023/04/08 03:54:09+0000,-31.67,-46.86,-37.43,-37.20,-48.16,-50.50
2023/04/08 03:55:01+0000,-32.89,-45.81,-36.76,-38.09,-48.03,-50.62
2023/04/08 03:55:53+0000,-31.19,-47.82,-37.48,-36.81,-47.91,-50.41
2023/04/08 03:56:45+0000,-31.88,-45.48,-37.98,-35.92,-48.25,-50.56
2023/04/08 03:57:37+0000,-32.60,-45.91,-37.22,-37.73,-48.51,-51.03
2023/04/08 03:58:29+0000,-32.42,-44.51,-38.13,-37.77,-48.05,-50.54
2023/04/08 03:59:21+0000,-32.44,-46.27,-37.36,-37.92,-47.98,-50.95
2023/04/08 04:00:13+0000,-32.27,-44.63,-37.55,-36.16,-47.74,-50.67
2023/04/08 04:01:12+0000,-32.45,-46.26,-38.58,-37.71,-48.42,-50.55
2023/04/08 04:02:04+0000,-31.96,-44.12,-37.20,-37.93,-47.10,-51.31
2023/04/08 04:02:56+0000,-32.55,-45.12,-37.92,-37.41,-47.45,-50.91
2023/04/08 04:03:48+0000,-32.32,-44.62,-37.35,-38.28,-47.71,-50.50
2023/04/08 04:04:40+0000,-32.05,-45.56,-37.40,-37.52,-47.64,-50.62
2023/04/08 04:05:32+0000,-31.82,-44.33,-37.61,-37.93,-48.13,-50.54
2023/04/08 04:06:24+0000,-32.32,-44.72,-37.82,-37.85,-47.99,-50.92
2023/04/08 04:07:16+0000,-32.34,-45.21,-37.96,-37.01,-47.60,-50.48
2023/04/08 04:08:08+0000,-32.39,-45.94,-38.25,-35.65,-47.29,-50.68
2023/04/08 04:09:00+0000,-32.02,-43.26,-38.06,-38.27,-47.59,-50.54
2023/04/08 04:09:53+0000,-33.27,-46.32,-38.40,-37.10,-47.52,-50.63
2023/04/08 04:10:45+0000,-32.72,-39.68,-37.98,-37.87,-47.64,-50.57
2023/04/08 04:11:43+0000,-32.14,-44.23,-38.15,-35.85,-47.52,-50.87
2023/04/08 04:12:35+0000,-31.71,-47.63,-37.69,-38.14,-47.71,-50.70
2023/04/08 04:13:27+0000,-32.77,-43.04,-37.63,-37.04,-47.55,-50.98
2023/04/08 04:14:19+0000,-32.12,-46.12,-37.54,-38.10,-47.41,-50.46
2023/04/08 04:15:11+0000,-32.82,-44.32,-37.74,-37.46,-47.58,-50.88
2023/04/08 04:16:03+0000,-31.93,-45.39,-37.30,-37.13,-47.29,-50.32
2023/04/08 04:16:55+0000,-32.09,-45.62,-38.07,-37.51,-47.18,-49.96
2023/04/08 04:17:47+0000,-32.34,-45.20,-38.16,-36.91,-47.59,-50.94
2023/04/08 04:18:39+0000,-31.81,-44.53,-37.07,-36.70,-47.42,-50.05
2023/04/08 04:19:31+0000,-32.41,-44.79,-37.01,-36.73,-47.39,-51.35
2023/04/08 04:20:23+0000,-32.35,-45.77,-37.73,-37.22,-47.30,-50.78
2023/04/08 04:21:33+0000,-32.28,-45.71,-37.20,-36.87,-47.16,-50.82
2023/04/08 04:22:25+0000,-32.71,-45.97,-36.53,-36.41,-47.57,-50.89
2023/04/08 04:23:17+0000,-32.63,-44.93,-37.24,-37.64,-47.16,-50.47
2023/04/08 04:24:09+0000,-32.38,-42.54,-36.87,-37.44,-46.75,-51.16
2023/04/08 04:25:01+0000,-31.62,-44.39,-37.92,-36.72,-47.18,-50.36
2023/04/08 04:25:53+0000,-32.63,-47.16,-37.11,-37.24,-47.36,-50.82
2023/04/08 04:26:45+0000,-32.01,-44.07,-36.92,-38.19,-46.96,-50.93
2023/04/08 04:27:37+0000,-31.74,-48.08,-37.31,-37.76,-47.84,-51.24
2023/04/08 04:28:29+0000,-31.88,-46.21,-38.18,-37.04,-46.82,-50.74
2023/04/08 04:29:21+0000,-33.01,-47.89,-37.38,-37.92,-47.37,-50.79
2023/04/08 04:30:13+0000,-31.61,-44.87,-38.64,-37.66,-47.10,-50.70
2023/04/08 04:31:13+0000,-31.78,-45.68,-38.40,-37.82,-47.09,-51.26
2023/04/08 04:32:05+0000,-32.41,-44.87,-37.68,-38.04,-47.25,-51.17
2023/04/08 04:32:57+0000,-31.78,-43.87,-37.75,-37.97,-48.49,-51.01
2023/04/08 04:33:49+0000,-32.42,-44.29,-37.77,-38.26,-47.99,-50.93
2023/04/08 04:34:41+0000,-31.52,-45.08,-37.50,-37.92,-47.18,-50.84
2023/04/08 04:35:33+0000,-32.15,-44.61,-37.78,-37.56,-47.01,-50.77
2023/04/08 04:36:25+0000,-31.81,-41.92,-36.70,-37.72,-47.41,-50.86
2023/04/08 04:37:17+0000,-32.20,-44.43,-36.74,-37.28,-47.55,-50.41
2023/04/08 04:38:09+0000,-32.49,-43.86,-37.67,-37.51,-46.96,-51.12
2023/04/08 04:39:01+0000,-32.05,-43.67,-38.35,-37.84,-47.20,-50.74
2023/04/08 04:39:53+0000,-32.23,-48.58,-37.16,-37.01,-47.36,-51.17
2023/04/08 04:40:45+0000,-32.31,-44.69,-37.69,-37.43,-47.23,-50.81
2023/04/08 04:41:45+0000,-32.75,-43.55,-37.77,-37.82,-47.11,-50.88
2023/04/08 04:42:37+0000,-32.60,-47.06,-37.73,-37.52,-47.61,-50.49
2023/04/08 04:43:29+0000,-28.72,-41.85,-38.07,-38.01,-47.43,-50.62
2023/04/08 04:44:21+0000,-32.15,-46.37,-38.08,-38.41,-46.76,-50.91
2023/04/08 04:45:13+0000,-32.23,-44.94,-37.97,-37.64,-47.18,-51.08
2023/04/08 04:46:05+0000,-32.34,-42.63,-37.65,-38.25,-48.06,-51.51